Weather History for Fond du Lac, WI

Change the Weather History Date:

Monday, August 26, 2013

  Actual Average Record
Temperature  
Mean Temperature 80 °F -  
Max Temperature 90 °F 78 °F 97 °F (1948)
Min Temperature 72 °F 61 °F 45 °F (1964)
Cooling Degree Days 16    
Growing Degree Days 30 (Base 50)    
Moisture  
Dew Point 67 °F    
Average Humidity 67    
Maximum Humidity 81    
Minimum Humidity 46    
Precipitation  
Precipitation 0.02 in - - ()
Sea Level Pressure  
Sea Level Pressure 30.02 in    
Wind  
Wind Speed 11 mph (SW)    
Max Wind Speed 18 mph    
Max Gust Speed 26 mph    
Visibility 10 miles    
Events Rain , Thunderstorm    
Averages and records for this station are not official NWS values.
T = Trace of Precipitation, MM = Missing Value Source: NWS Daily Summary

Daily Weather History Graph

Daily Weather History Graph

Search for Another Location

Airport:

Trip Planner

Search our weather history database for the weather conditions in past years. The results will help you decide how hot, cold, wet, or windy it might be!

Date:

Astronomy

Aug. 26, 2013 Rise Set
Actual Time 6:10 AM CDT 7:39 PM CDT
Civil Twilight 5:40 AM CDT 8:09 PM CDT
Nautical Twilight 5:04 AM CDT 8:45 PM CDT
Astronomical Twilight 4:25 AM CDT 9:24 PM CDT
Moon 10:36 PM CDT (8/26) 12:25 PM CDT (8/26)
Length of Visible Light 14h 28m
Length of Day
13h 28m
Waning Gibbous, 66% of the Moon is Illuminated
Aug 26
Waning Gibbous
Aug 28
Last Quarter
Sep 5
New
Sep 12
First Quarter
Sep 19
Full

Hourly Weather History & Observations

Time (CDT) Temp. Heat Index Dew Point Humidity Pressure Visibility Wind Dir Wind Speed Gust Speed Precip Events Conditions
12:53 AM 75.9 °F - 64.0 °F 67% 30.04 in 10.0 mi SW 15.0 mph 20.7 mph N/A   Clear
1:53 AM 73.9 °F - 64.0 °F 71% 30.05 in 10.0 mi SW 12.7 mph 20.7 mph N/A   Clear
2:53 AM 73.9 °F - 64.0 °F 71% 30.03 in 10.0 mi SSW 12.7 mph 20.7 mph N/A   Clear
3:53 AM 73.0 °F - 64.0 °F 73% 30.04 in 10.0 mi SSW 10.4 mph - N/A   Clear
4:53 AM 73.0 °F - 64.0 °F 73% 30.05 in 10.0 mi SSW 6.9 mph - N/A   Partly Cloudy
5:53 AM 72.0 °F - 64.0 °F 76% 30.06 in 10.0 mi SSW 6.9 mph - N/A   Overcast
6:53 AM 72.0 °F - 64.0 °F 76% 30.07 in 10.0 mi SSW 9.2 mph - N/A   Mostly Cloudy
7:53 AM 73.0 °F - 64.0 °F 73% 30.10 in 10.0 mi Variable 4.6 mph - N/A   Mostly Cloudy
8:53 AM 73.0 °F - 66.9 °F 81% 30.12 in 7.0 mi SW 3.5 mph - 0.02 in Rain , Thunderstorm Light Rain
9:07 AM 73.4 °F - 66.2 °F 78% 30.12 in 10.0 mi SW 4.6 mph - 0.00 in   Overcast
9:53 AM 75.9 °F - 66.9 °F 74% 30.11 in 10.0 mi SSW 3.5 mph - 0.00 in   Partly Cloudy
10:53 AM 75.9 °F - 68.0 °F 76% 30.14 in 10.0 mi NW 10.4 mph - N/A Thunderstorm Mostly Cloudy
11:12 AM 77.0 °F - 66.2 °F 69% 30.09 in 10.0 mi Calm Calm - N/A   Scattered Clouds
11:53 AM 82.0 °F 84.5 °F 66.9 °F 60% 30.03 in 10.0 mi SSW 11.5 mph - N/A   Clear
12:53 PM 86.0 °F 88.2 °F 66.0 °F 51% 30.00 in 10.0 mi SW 17.3 mph 24.2 mph N/A   Clear
1:53 PM 87.1 °F 89.2 °F 66.0 °F 49% 29.98 in 10.0 mi SW 18.4 mph 25.3 mph N/A   Clear
2:53 PM 89.1 °F 91.3 °F 66.0 °F 46% 29.96 in 10.0 mi SW 17.3 mph 26.5 mph N/A   Clear
3:53 PM 89.1 °F 92.9 °F 68.0 °F 50% 29.96 in 10.0 mi SW 12.7 mph 20.7 mph N/A   Clear
4:53 PM 89.1 °F 94.1 °F 70.0 °F 53% 29.95 in 10.0 mi SW 12.7 mph - N/A   Clear
5:53 PM 88.0 °F 93.8 °F 71.1 °F 57% 29.94 in 10.0 mi SW 12.7 mph - N/A   Clear
6:53 PM 86.0 °F 92.2 °F 72.0 °F 63% 29.93 in 10.0 mi SSW 12.7 mph - N/A   Clear
7:53 PM 84.9 °F 90.7 °F 72.0 °F 65% 29.93 in 10.0 mi SW 8.1 mph - N/A   Clear
8:53 PM 82.9 °F 88.0 °F 72.0 °F 69% 29.94 in 10.0 mi SSW 5.8 mph - N/A   Clear
9:53 PM 81.0 °F 85.2 °F 72.0 °F 74% 29.94 in 10.0 mi SW 6.9 mph - N/A   Clear
10:53 PM 80.1 °F 83.8 °F 72.0 °F 76% 29.94 in 10.0 mi SSW 9.2 mph - N/A   Clear
11:53 PM 80.1 °F 83.6 °F 71.1 °F 74% 29.93 in 10.0 mi SSW 11.5 mph - N/A   Clear